Preview of NWS' New Version of Forecast
This preview is not operational and should not be used for support decisions.

Regional Weather Roundup (RWR)

Issued by National Weather Service (NWS)

                            
000
ASUS43 KLSX 181857
RWRMO 

WEATHER SUMMARY FOR MISSOURI
NATIONAL WEATHER SERVICE SPRINGFIELD MO
100 PM CST MON FEB 18 2019

NOTE: "FAIR" INDICATES FEW OR NO CLOUDS BELOW 12,000 FEET WITH NO
       SIGNIFICANT WEATHER AND/OR OBSTRUCTIONS TO VISIBILITY.
       CURRENT SKY AND/OR WEATHER CONDITIONS ARE NOT AVAILABLE FOR
       CHILLICOTHE AND FARMINGTON.

MOZ001>031-035>038-043-044-053-054-182000-
...NORTHERN AND WESTERN MISSOURI...
  
CITY           SKY/WX    TMP DP  RH WIND       PRES   REMARKS
KANSAS CTY INT PTSUNNY   22  14  71 NW7       30.49S WCI  13          
LEE'S SUMMIT   MOSUNNY   25  18  74 N9        30.47F WCI  15          
ST JOSEPH      PTSUNNY   23  17  78 NW7       30.51F WCI  15          
CHILLICOTHE      N/A     28  18  66 N5        30.49F WCI  23          
     
$$
MOZ066>068-077>081-088>096-101>105-182000-
...SOUTHWEST MISSOURI...
  
CITY           SKY/WX    TMP DP  RH WIND       PRES   REMARKS
SPRINGFIELD    SUNNY     31  18  58 NW8       30.41F WCI  23          
JOPLIN         MOSUNNY   31  19  61 N9G17     30.45F WCI  23          
BRANSON        PTSUNNY   32  18  55 N10       30.41F WCI  24          
               
$$
MOZ032>034-039>042-045>050-055>058-069>072-182000-
...CENTRAL MISSOURI...  
  
CITY           SKY/WX    TMP DP  RH WIND       PRES   REMARKS
COLUMBIA       NOT AVBL                                               
JEFFERSON CITY CLOUDY    28  17  63 W7        30.47F WCI  21          
ROLLA          PTSUNNY   28  17  63 N8        30.42S WCI  20          
SEDALIA        CLOUDY    25  18  74 NW8       30.47F WCI  16          
WARRENSBURG    CLOUDY    27  18  69 W6        30.48F WCI  20          
               
$$
MOZ051-052-059>065-182000-
...EAST CENTRAL MISSOURI...
  
CITY           SKY/WX    TMP DP  RH WIND       PRES   REMARKS
ST LOUIS INTL  CLOUDY    29  20  69 NW10      30.44S WCI  20          
                   
$$
MOZ072>076-082>087-097>100-106>115-182000-
...SOUTH CENTRAL AND SOUTHEAST MISSOURI...
  
CITY           SKY/WX    TMP DP  RH WIND       PRES   REMARKS
CAPE GIRARDEAU PTSUNNY   34  21  59 N8        30.43F WCI  27          
POPLAR BLUFF   FAIR      37  24  59 CALM      30.42F                  
WEST PLAINS    PTSUNNY   33  22  63 MISG      30.40S                  
                                       
$$